New River MCAS, NC

1:16 PM EDT on July 28, 2017 (GMT -0400)
New River Marine Corps Air Station

Weather History for KNCA - May, 2014

Change the Weather History Date:

Wednesday, May 7, 2014

  Actual Average Record
Temperature  
Mean Temperature 72 °F -  
Max Temperature 81 °F 77 °F 90 °F (2004)
Min Temperature 64 °F 55 °F 45 °F (2005)
Cooling Degree Days 8    
Growing Degree Days 22 (Base 50)    
Moisture  
Dew Point 64 °F    
Average Humidity 86    
Maximum Humidity 96    
Minimum Humidity 62    
Precipitation  
Precipitation 0.00 in - - ()
Sea Level Pressure  
Sea Level Pressure 30.08 in    
Wind  
Wind Speed 9 mph (East)    
Max Wind Speed 12 mph    
Max Gust Speed -    
Visibility 10 miles    
Events      
Averages and records for this station are not official NWS values.
T = Trace of Precipitation, MM = Missing Value Source: NWS Daily Summary

Daily Weather History Graph

Daily Weather History Graph

Search for Another Location

Airport or City:

Trip Planner

Search our weather history database for the weather conditions in past years. The results will help you decide how hot, cold, wet, or windy it might be!

Date:

Astronomy

May. 07, 2014 Rise Set
Actual Time 6:13 AM EDT 7:59 PM EDT
Civil Twilight 5:46 AM EDT 8:26 PM EDT
Nautical Twilight 5:13 AM EDT 9:00 PM EDT
Astronomical Twilight 4:38 AM EDT 9:35 PM EDT
Moon 1:19 PM EDT (5/7) 1:54 AM EDT (5/7)
Length of Visible Light 14h 40m
Length of Day
13h 46m
First Quarter, 55% of the Moon is Illuminated
May 7
First Quarter
May 14
Full
May 21
Last Quarter
May 28
New
Jun 5
First Quarter

Hourly Weather History & Observations

Time (EDT) Temp. Heat Index Dew Point Humidity Pressure Visibility Wind Dir Wind Speed Gust Speed Precip Events Conditions
12:56 AM 64.9 °F - 60.1 °F 84% 30.05 in 10.0 mi East 11.5 mph - N/A   Clear
1:56 AM 64.0 °F - 60.1 °F 87% 30.05 in 10.0 mi East 11.5 mph - N/A   Clear
2:56 AM 64.0 °F - 62.1 °F 93% 30.04 in 10.0 mi East 9.2 mph - N/A   Clear
3:55 AM 64.0 °F - 62.1 °F 93% 30.05 in 10.0 mi ENE 8.1 mph - N/A   Mostly Cloudy
4:16 AM 64.0 °F - 62.1 °F 93% 30.04 in 10.0 mi ENE 5.8 mph - N/A   Overcast
4:42 AM 64.0 °F - 62.1 °F 93% 30.04 in 10.0 mi East 8.1 mph - N/A   Scattered Clouds
4:56 AM 64.0 °F - 62.1 °F 93% 30.06 in 10.0 mi East 8.1 mph - N/A   Clear
5:08 AM 64.0 °F - 62.1 °F 93% 30.05 in 10.0 mi ENE 5.8 mph - N/A   Partly Cloudy
5:56 AM 64.0 °F - 63.0 °F 96% 30.06 in 9.0 mi East 6.9 mph - N/A   Clear
6:31 AM 64.0 °F - 63.0 °F 96% 30.07 in 8.0 mi East 8.1 mph - N/A   Mostly Cloudy
6:56 AM 64.9 °F - 63.0 °F 93% 30.08 in 7.0 mi East 9.2 mph - N/A   Overcast
7:34 AM 66.9 °F - 64.9 °F 93% 30.08 in 8.0 mi East 6.9 mph - N/A   Scattered Clouds
7:56 AM 68.0 °F - 64.9 °F 90% 30.09 in 9.0 mi East 9.2 mph - N/A   Partly Cloudy
8:52 AM 75.2 °F - 69.8 °F 83% 30.09 in 10.0 mi SE 11.5 mph - N/A   Mostly Cloudy
8:56 AM 75.0 °F - 70.0 °F 84% 30.10 in 10.0 mi SE 11.5 mph - N/A   Mostly Cloudy
9:22 AM 75.9 °F - 69.1 °F 79% 30.10 in 10.0 mi SE 11.5 mph - N/A   Scattered Clouds
9:56 AM 77.0 °F - 69.1 °F 76% 30.11 in 10.0 mi ESE 10.4 mph - N/A   Partly Cloudy
10:56 AM 79.0 °F - 66.0 °F 64% 30.12 in 10.0 mi SE 11.5 mph - N/A   Clear
12:56 PM 81.0 °F 83.3 °F 66.9 °F 62% 30.12 in 10.0 mi SSE 9.2 mph - N/A   Clear
10:56 PM 69.1 °F - 64.0 °F 84% 30.13 in 10.0 mi SSE 4.6 mph - N/A   Clear